Time,TemperatureF,DewpointF,PressureIn,WindDirection,WindDirectionDegrees,WindSpeedMPH,WindSpeedGustMPH,Humidity,HourlyPrecipIn,Conditions,Clouds,dailyrainin,SoftwareType,DateUTC
2013-08-22 07:52:00,66.0,65.0,30.15,South,171,0.0,-999.0,98,-99.99,,,-99.99,,2013-08-22 12:52:00,
2013-08-22 08:12:00,66.0,65.0,30.15,South,171,0.0,-999.0,98,-99.99,,,-99.99,,2013-08-22 13:12:00,
2013-08-22 08:22:00,68.0,67.0,30.15,South,171,0.0,-999.0,98,-99.99,,,-99.99,,2013-08-22 13:22:00,
2013-08-22 08:32:00,68.0,67.0,30.15,South,171,0.0,-999.0,98,-99.99,,,-99.99,,2013-08-22 13:32:00,
2013-08-22 08:52:00,69.0,68.0,30.16,South,171,0.0,-999.0,97,-99.99,,,-99.99,,2013-08-22 13:52:00,
2013-08-22 09:02:00,69.0,68.0,30.16,South,171,0.0,-999.0,97,-99.99,,,-99.99,,2013-08-22 14:02:00,
2013-08-22 09:11:00,69.0,68.0,30.16,South,171,0.0,-999.0,97,-99.99,,,-99.99,,2013-08-22 14:11:00,
2013-08-22 09:22:00,73.0,70.0,30.15,South,171,0.0,-999.0,89,-99.99,,,-99.99,,2013-08-22 14:22:00,
2013-08-22 09:33:00,73.0,70.0,30.15,South,171,0.0,-999.0,89,-99.99,,,-99.99,,2013-08-22 14:33:00,
2013-08-22 09:52:00,77.0,70.0,30.14,South,171,0.0,-999.0,80,-99.99,,,-99.99,,2013-08-22 14:52:00,
2013-08-22 10:02:00,77.0,70.0,30.14,South,171,0.0,-999.0,80,-99.99,,,-99.99,,2013-08-22 15:02:00,
2013-08-22 10:12:00,77.0,70.0,30.14,South,171,0.0,-999.0,80,-99.99,,,-99.99,,2013-08-22 15:12:00,
2013-08-22 10:22:00,80.0,71.0,30.14,South,171,1.0,-999.0,74,-99.99,,,-99.99,,2013-08-22 15:22:00,
2013-08-22 10:33:00,80.0,71.0,30.14,South,171,1.0,-999.0,74,-99.99,,,-99.99,,2013-08-22 15:33:00,
2013-08-22 10:55:00,82.0,71.0,30.14,South,171,1.0,-999.0,69,-99.99,,,-99.99,,2013-08-22 15:55:00,
2013-08-22 11:05:00,82.0,71.0,30.14,South,171,1.0,-999.0,69,-99.99,,,-99.99,,2013-08-22 16:05:00,
2013-08-22 11:14:00,82.0,71.0,30.14,South,171,1.0,-999.0,69,-99.99,,,-99.99,,2013-08-22 16:14:00,
2013-08-22 11:24:00,83.0,70.0,30.14,South,170,3.0,-999.0,65,-99.99,,,-99.99,,2013-08-22 16:24:00,
2013-08-22 11:34:00,83.0,70.0,30.14,South,170,3.0,-999.0,65,-99.99,,,-99.99,,2013-08-22 16:34:00,
2013-08-22 11:54:00,85.0,70.0,30.16,SSE,161,2.0,-999.0,61,-99.99,,,-99.99,,2013-08-22 16:54:00,
2013-08-22 12:02:00,85.0,70.0,30.16,SSE,161,2.0,-999.0,61,-99.99,,,-99.99,,2013-08-22 17:02:00,
2013-08-22 12:12:00,85.0,70.0,30.16,SSE,161,2.0,-999.0,61,-99.99,,,-99.99,,2013-08-22 17:12:00,
2013-08-22 12:24:00,86.0,72.0,30.15,South,179,1.0,-999.0,63,-99.99,,,-99.99,,2013-08-22 17:24:00,
2013-08-22 12:33:00,86.0,72.0,30.15,South,179,1.0,-999.0,63,-99.99,,,-99.99,,2013-08-22 17:33:00,
2013-08-22 12:43:00,86.0,72.0,30.15,South,179,1.0,-999.0,63,-99.99,,,-99.99,,2013-08-22 17:43:00,
2013-08-22 12:53:00,88.0,72.0,30.15,SSE,167,1.0,-999.0,59,-99.99,,,-99.99,,2013-08-22 17:53:00,
2013-08-22 13:02:00,88.0,72.0,30.15,SSE,167,1.0,-999.0,59,-99.99,,,-99.99,,2013-08-22 18:02:00,
2013-08-22 13:12:00,88.0,72.0,30.15,SSE,167,1.0,-999.0,59,-99.99,,,-99.99,,2013-08-22 18:12:00,
2013-08-22 13:22:00,87.0,69.0,30.14,South,169,0.0,-999.0,55,-99.99,,,-99.99,,2013-08-22 18:22:00,
2013-08-22 13:32:00,87.0,69.0,30.14,South,169,0.0,-999.0,55,-99.99,,,-99.99,,2013-08-22 18:32:00,
2013-08-22 13:43:00,87.0,69.0,30.14,South,169,0.0,-999.0,55,-99.99,,,-99.99,,2013-08-22 18:43:00,
2013-08-22 13:52:00,88.0,68.0,30.14,West,277,1.0,-999.0,51,-99.99,,,-99.99,,2013-08-22 18:52:00,
2013-08-22 14:02:00,88.0,68.0,30.14,West,277,1.0,-999.0,51,-99.99,,,-99.99,,2013-08-22 19:02:00,
2013-08-22 14:11:00,88.0,68.0,30.14,West,277,1.0,-999.0,51,-99.99,,,-99.99,,2013-08-22 19:11:00,
2013-08-22 14:22:00,89.0,67.0,30.13,South,186,1.0,-999.0,48,-99.99,,,-99.99,,2013-08-22 19:22:00,
2013-08-22 14:32:00,89.0,67.0,30.13,South,186,1.0,-999.0,48,-99.99,,,-99.99,,2013-08-22 19:32:00,
2013-08-22 14:53:00,87.0,69.0,30.12,NNW,344,1.0,-999.0,55,-99.99,,,-99.99,,2013-08-22 19:53:00,
2013-08-22 15:02:00,87.0,69.0,30.12,NNW,344,1.0,-999.0,55,-99.99,,,-99.99,,2013-08-22 20:02:00,
2013-08-22 15:12:00,87.0,69.0,30.12,NNW,344,1.0,-999.0,55,-99.99,,,-99.99,,2013-08-22 20:12:00,
2013-08-22 15:23:00,88.0,69.0,30.12,NNW,344,0.0,-999.0,53,-99.99,,,-99.99,,2013-08-22 20:23:00,
2013-08-22 15:32:00,88.0,69.0,30.12,NNW,344,0.0,-999.0,53,-99.99,,,-99.99,,2013-08-22 20:32:00,
2013-08-22 15:42:00,88.0,69.0,30.12,NNW,344,0.0,-999.0,53,-99.99,,,-99.99,,2013-08-22 20:42:00,
2013-08-22 15:52:00,88.0,70.0,30.12,NNW,331,0.0,-999.0,55,-99.99,,,-99.99,,2013-08-22 20:52:00,
2013-08-22 16:02:00,88.0,70.0,30.12,NNW,331,0.0,-999.0,55,-99.99,,,-99.99,,2013-08-22 21:02:00,
2013-08-22 16:13:00,88.0,70.0,30.12,NNW,331,0.0,-999.0,55,-99.99,,,-99.99,,2013-08-22 21:13:00,
2013-08-22 16:22:00,89.0,68.0,30.11,NNW,331,0.0,-999.0,51,-99.99,,,-99.99,,2013-08-22 21:22:00,
2013-08-22 16:34:00,89.0,68.0,30.11,NNW,331,0.0,-999.0,51,-99.99,,,-99.99,,2013-08-22 21:34:00,
2013-08-22 16:44:00,89.0,68.0,30.11,NNW,331,0.0,-999.0,51,-99.99,,,-99.99,,2013-08-22 21:44:00,
2013-08-22 16:54:00,88.0,68.0,30.08,SW,233,0.0,-999.0,51,-99.99,,,-99.99,,2013-08-22 21:54:00,
2013-08-22 17:05:00,88.0,68.0,30.08,SW,233,0.0,-999.0,51,-99.99,,,-99.99,,2013-08-22 22:05:00,
2013-08-22 17:13:00,88.0,68.0,30.08,SW,233,0.0,-999.0,51,-99.99,,,-99.99,,2013-08-22 22:13:00,
2013-08-22 17:24:00,88.0,69.0,30.10,SW,227,0.0,-999.0,53,-99.99,,,-99.99,,2013-08-22 22:24:00,
2013-08-22 17:34:00,88.0,69.0,30.10,SW,227,0.0,-999.0,53,-99.99,,,-99.99,,2013-08-22 22:34:00,
2013-08-22 17:42:00,88.0,69.0,30.10,SW,227,0.0,-999.0,53,-99.99,,,-99.99,,2013-08-22 22:42:00,
2013-08-22 17:53:00,88.0,68.0,30.06,SW,227,0.0,-999.0,51,-99.99,,,-99.99,,2013-08-22 22:53:00,
2013-08-22 18:02:00,88.0,68.0,30.06,SW,227,0.0,-999.0,51,-99.99,,,-99.99,,2013-08-22 23:02:00,
2013-08-22 18:11:00,88.0,68.0,30.06,SW,227,0.0,-999.0,51,-99.99,,,-99.99,,2013-08-22 23:11:00,
2013-08-22 18:22:00,87.0,67.0,30.09,SW,228,0.0,-999.0,51,-99.99,,,-99.99,,2013-08-22 23:22:00,
2013-08-22 18:33:00,87.0,67.0,30.09,SW,228,0.0,-999.0,51,-99.99,,,-99.99,,2013-08-22 23:33:00,
2013-08-22 18:53:00,85.0,71.0,30.06,SW,228,0.0,-999.0,63,-99.99,,,-99.99,,2013-08-22 23:53:00,
2013-08-22 19:02:00,85.0,71.0,30.06,SW,228,0.0,-999.0,63,-99.99,,,-99.99,,2013-08-23 00:02:00,
2013-08-22 19:12:00,85.0,71.0,30.06,SW,228,0.0,-999.0,63,-99.99,,,-99.99,,2013-08-23 00:12:00,
2013-08-22 19:23:00,82.0,71.0,30.06,SW,228,0.0,-999.0,69,-99.99,,,-99.99,,2013-08-23 00:23:00,
2013-08-22 19:33:00,82.0,71.0,30.06,SW,228,0.0,-999.0,69,-99.99,,,-99.99,,2013-08-23 00:33:00,
2013-08-22 19:42:00,82.0,71.0,30.06,SW,228,0.0,-999.0,69,-99.99,,,-99.99,,2013-08-23 00:42:00,
2013-08-22 19:52:00,81.0,74.0,30.05,SW,228,0.0,-999.0,80,-99.99,,,-99.99,,2013-08-23 00:52:00,
2013-08-22 20:02:00,81.0,74.0,30.05,SW,228,0.0,-999.0,80,-99.99,,,-99.99,,2013-08-23 01:02:00,
2013-08-22 20:11:00,81.0,74.0,30.05,SW,228,0.0,-999.0,80,-99.99,,,-99.99,,2013-08-23 01:11:00,
2013-08-22 20:42:00,77.0,72.0,30.05,SW,228,0.0,-999.0,86,-99.99,,,-99.99,,2013-08-23 01:42:00,
2013-08-22 20:52:00,75.0,72.0,30.06,SW,228,0.0,-999.0,89,-99.99,,,-99.99,,2013-08-23 01:52:00,
2013-08-22 21:02:00,75.0,72.0,30.06,SW,228,0.0,-999.0,89,-99.99,,,-99.99,,2013-08-23 02:02:00,
2013-08-22 21:11:00,75.0,72.0,30.06,SW,228,0.0,-999.0,89,-99.99,,,-99.99,,2013-08-23 02:11:00,
2013-08-22 21:23:00,74.0,71.0,30.07,SW,228,0.0,-999.0,90,-99.99,,,-99.99,,2013-08-23 02:23:00,
2013-08-22 21:30:00,73.0,71.0,30.08,SW,228,0.0,-999.0,92,-99.99,,,-99.99,,2013-08-23 02:30:00,
2013-08-22 21:32:00,74.0,71.0,30.07,SW,228,0.0,-999.0,90,-99.99,,,-99.99,,2013-08-23 02:32:00,
2013-08-22 21:43:00,74.0,71.0,30.07,SW,228,0.0,-999.0,90,-99.99,,,-99.99,,2013-08-23 02:43:00,
2013-08-22 21:52:00,73.0,71.0,30.08,SW,228,0.0,-999.0,92,-99.99,,,-99.99,,2013-08-23 02:52:00,
2013-08-22 22:02:00,73.0,71.0,30.08,SW,228,0.0,-999.0,92,-99.99,,,-99.99,,2013-08-23 03:02:00,
2013-08-22 22:12:00,73.0,71.0,30.08,SW,228,0.0,-999.0,92,-99.99,,,-99.99,,2013-08-23 03:12:00,
2013-08-22 22:22:00,73.0,71.0,30.08,SW,228,0.0,-999.0,92,-99.99,,,-99.99,,2013-08-23 03:22:00,